Content
SEND FEEDBACK

Daily
Averages
Monthly
Summary
United States of America

FRUITA, COLORADO


Home > North America > United States > Colorado
Elevation: 4766 feet     Latitude: 39 07N     Longitude: 108 32W

WEATHER
 
SELECT A DAY
Number of Records: 179,157;   Date Range: 1/1/95 - 8/12/14
 
SHARE

PRINT THIS DATA

[ ← Previous Day ]
WEATHER ALMANAC - JANUARY 31, 2013
[ Next Day → ]
[ °C ]   °F
Weather ElementAverageHighLow
Temperature28.7 °F37 °F (2:53 pm)18 °F (7:53 am)
Dewpoint24.5 °F28.9 °F (1:53 pm)17.1 °F (7:53 am)
Humidity85 %96 % (2:53 am)67 % (11:53 am)
Barometer30.35 in30.43 in (9:53 am)30.27 in (11:53 pm)
Wind Speed2.8 mph5.8 mph (5:53 am)
Weather ElementAverage
Visibility10 mi
Wind DirectionE (89.1 °)

Weather ElementTotal
Precipitation---
Heating Degree Days37.5 (Base 65)
Averaged from 23 records on January 31, 2013
WEATHER CONDITIONS BREAKOUT
WIND DIRECTION BREAKOUT
WEATHER BY HOUR - JANUARY 31, 2013
[ °C ]   °F
Local TimeTemperatureDewpointHumidityBarometerVisibilityWind DirectionWind SpeedGust SpeedPrecipitationEventsConditions
1:53 AM24.1 °F21.9 °F91 %30.28 in10.0 miEast (90°)3.5 mphClear
2:53 AM21.0 °F19.9 °F96 %30.31 in10.0 miCalmMostly Cloudy
3:53 AM21.9 °F19.9 °F92 %30.30 in10.0 miENE (60°)4.6 mphClear
4:53 AM19.9 °F19.0 °F96 %30.33 in10.0 miCalmClear
5:53 AM19.9 °F19.0 °F96 %30.34 in10.0 miENE (60°)5.8 mphClear
6:53 AM21.9 °F19.0 °F89 %30.36 in10.0 miEast (100°)3.5 mphClear
7:53 AM18.0 °F17.1 °F96 %30.40 in10.0 miCalmClear
8:53 AM24.1 °F21.0 °F88 %30.41 in10.0 miCalmClear
9:53 AM28.0 °F21.9 °F78 %30.43 in10.0 miSE (130°)3.5 mphClear
10:53 AM30.9 °F23.0 °F72 %30.42 in10.0 miCalmClear
11:53 AM35.1 °F25.0 °F67 %30.38 in10.0 miCalmClear
12:53 PM35.1 °F27.0 °F72 %30.35 in10.0 miCalmClear
1:53 PM36.0 °F28.9 °F76 %30.32 in10.0 miWNW (290°)4.6 mphClear
2:53 PM37.0 °F28.9 °F73 %30.32 in10.0 miWNW (300°)5.8 mphClear
3:53 PM37.0 °F28.9 °F73 %30.31 in10.0 miWNW (300°)5.8 mphClear
4:53 PM36.0 °F28.9 °F76 %30.33 in10.0 miNW (320°)5.8 mphScattered Clouds
5:53 PM32.0 °F28.0 °F85 %30.35 in10.0 miCalmClear
6:53 PM30.9 °F28.0 °F89 %30.36 in10.0 miNE (50°)5.8 mphClear
7:53 PM30.9 °F28.0 °F89 %30.38 in10.0 miCalmPartly Cloudy
8:53 PM30.0 °F28.0 °F92 %30.38 in10.0 miEast (100°)3.5 mphPartly Cloudy
9:53 PM30.9 °F28.0 °F89 %30.35 in10.0 miENE (70°)3.5 mphOvercast
10:53 PM30.0 °F27.0 °F88 %30.34 in10.0 miEast (90°)4.6 mphClear
11:53 PM28.4 °F26.6 °F93 %30.27 in10.0 miEast (90°)4.6 mphClear
Hourly data recorded from KGJT, located miles away from Fruita, Colorado







STORIES FROM OUR PARTNERS